Location: Andrest
(43.3200°N, 0.0641°E)
Time: 21:50:56
(UTC+00:00)

SL-8 Rocket - Pass Details

Date: 01 December 2020
Orbit: 958 x 990 km, 82.9° (Epoch: 20 January)

Event Time Altitude Azimuth Distance (km) Brightness Sun altitude
Rises 17:14:01 0° 353° (N) 3,679 6.9 -8.8°
Reaches altitude 10° 17:16:32 10° 355° (N) 2,732 6.2 -9.3°
Maximum altitude 17:22:49 77° 81° (E) 1,008 4.0 -10.3°
Drops below altitude 10° 17:29:06 10° 168° (SSE) 2,734 6.5 -11.4°
Sets 17:31:37 0° 170° (S) 3,681 7.1 -11.8°
